FW1194 Weather Reports


time (UTC)temp
F
wind
direction
speed
knots
gust
knots
rain 1hr
in
rain 24hr
in
rain mn
in
humidity
%
barometer
mb
20260502181217 52 293 2.6 4.3 0.00 0.00 0.00 41 1017.9
20260502180217 52 0 4.3 7.0 0.00 0.00 0.00 39 1018.0
20260502170237 51 293 4.3 7.0 0.00 0.00 0.00 42 1018.5
20260502164217 52 293 7.8 11.3 0.00 0.00 0.00 40 1018.7
20260502163217 52 248 4.3 7.0 0.00 0.00 0.00 42 1018.8
20260502162217 51 270 5.2 7.0 0.00 0.00 0.00 43 1018.9
20260502161216 51 293 9.6 13.9 0.00 0.00 0.00 44 1018.9
20260502160217 51 338 3.5 7.0 0.00 0.00 0.00 41 1019.0
20260502152217 50 315 1.7 13.0 0.00 0.00 0.00 42 1019.2
20260502151216 49 293 7.0 7.8 0.00 0.00 0.00 44 1019.1
20260502150216 50 315 4.3 8.7 0.00 0.00 0.00 46 1019.0
20260502130216 39 293 2.6 3.5 0.00 0.00 0.00 89 1019.0
20260502123216 35 293 1.7 2.6 0.00 0.00 0.00 91 1018.9
20260502122236 34 293 1.7 1.7 0.00 0.00 0.00 91 1018.9
20260502121236 34 293 1.7 3.5 0.00 0.00 0.00 91 1018.7
20260502120216 33 293 1.7 1.7 0.00 0.00 0.00 91 1018.7
20260502115216 32 338 0.9 0.9 0.00 0.00 0.00 91 1018.5
20260502114216 30 338 0.9 0.9 0.00 0.00 0.00 90 1018.4
20260502113216 29 0.0 0.9 0.00 0.00 0.00 90 1018.3
20260502112216 29 0.0 0.0 0.00 0.00 0.00 89 1018.2
20260502111216 29 0.0 0.0 0.00 0.00 0.00 89 1018.2
20260502110216 29 0.0 0.0 0.00 0.00 0.00 89 1018.1
20260502105216 29 0.0 0.0 0.00 0.01 0.00 90 1018.0
20260502104236 29 0.0 0.0 0.00 0.01 0.00 89 1018.0
20260502103216 29 0.0 0.0 0.00 0.01 0.00 89 1017.9
20260502102237 29 0.0 0.0 0.00 0.01 0.00 88 1017.9
20260502101216 29 0.0 0.0 0.00 0.01 0.00 89 1018.0
20260502100216 29 0.0 0.0 0.00 0.01 0.00 88 1017.9
20260502091216 29 0.0 0.0 0.00 0.01 0.00 88 1017.9
20260502090216 29 0.0 0.0 0.00 0.01 0.00 88 1017.9
20260502071218 31 0.0 0.0 0.00 0.04 0.00 86 1018.0
20260502070218 31 0.0 0.0 0.00 0.04 0.00 86 1018.1
20260502065217 31 0.0 0.0 0.00 0.04 0.00 86 1018.2
20260502064217 31 0.0 0.0 0.00 0.04 0.00 85 1018.3
20260502063217 31 0.0 0.0 0.00 0.04 0.00 85 1018.3
20260502062218 31 0.0 0.0 0.00 0.04 0.00 85 1018.4
20260502061218 31 0.0 0.0 0.00 0.04 0.00 84 1018.4
20260502060218 31 0.0 0.0 0.00 0.04 0.00 84 1018.5
20260502055236 31 0.0 0.0 0.00 0.05 0.00 83 1018.6
20260502054217 32 0.0 0.0 0.00 0.05 0.00 82 1018.5
20260502053220 32 0.0 0.0 0.00 0.05 0.00 82 1018.5
20260502052218 32 0.0 0.0 0.00 0.05 0.00 82 1018.4
20260502051258 32 0.0 0.0 0.00 0.05 0.00 81 1018.5
20260502050238 32 0.0 0.0 0.00 0.05 0.00 81 1018.4
20260502045216 32 0.0 0.0 0.00 0.15 0.05 80 1018.4
20260502044216 33 0.0 0.0 0.00 0.15 0.05 80 1018.5
20260502043236 33 0.0 0.0 0.00 0.15 0.05 80 1018.5
20260502042216 33 0.0 0.0 0.00 0.15 0.05 80 1018.5
20260502041216 34 0.0 0.9 0.00 0.15 0.05 79 1018.4
20260502040216 34 0.0 0.0 0.00 0.15 0.05 79 1018.4
20260502035216 34 0.0 0.0 0.00 0.15 0.05 79 1018.3
20260502034216 35 0.0 0.0 0.00 0.15 0.05 79 1018.2
20260502033236 35 0.0 0.0 0.00 0.15 0.05 78 1018.3
20260502032236 35 0.0 0.9 0.00 0.15 0.05 78 1018.2
20260502031216 36 0.0 0.0 0.00 0.15 0.05 77 1018.1
20260502030216 36 0.0 0.0 0.00 0.15 0.05 77 1018.0
20260502025216 36 68 0.9 1.7 0.00 0.16 0.05 77 1018.0
20260502024216 36 68 0.9 1.7 0.00 0.16 0.05 77 1017.9
20260502023216 37 68 0.9 1.7 0.00 0.16 0.05 77 1017.8
20260502022216 37 68 0.9 1.7 0.00 0.16 0.05 77 1017.8
20260502021216 37 68 1.7 2.6 0.00 0.16 0.05 77 1017.7
20260502020216 37 68 1.7 2.6 0.00 0.16 0.05 77 1017.5
20260502015236 37 90 1.7 3.5 0.00 0.19 0.05 77 1017.4
20260502014216 38 90 3.5 5.2 0.00 0.19 0.05 76 1017.3
20260502013215 38 68 3.5 5.2 0.00 0.19 0.05 75 1017.2
20260502012216 38 68 1.7 2.6 0.00 0.19 0.05 74 1017.0
20260502011216 38 45 2.6 3.5 0.00 0.19 0.05 73 1016.9
20260502010216 39 45 6.1 8.7 0.00 0.19 0.05 72 1016.8
20260502005215 40 68 6.1 10.4 0.00 0.19 0.05 70 1016.8
20260502004216 40 68 3.5 5.2 0.00 0.19 0.05 69 1016.7
20260502003216 41 68 3.5 5.2 0.00 0.19 0.05 70 1016.6
20260502002236 41 45 7.0 8.7 0.00 0.19 0.05 70 1016.5
20260502001236 42 68 6.1 8.7 0.00 0.19 0.05 69 1016.5
20260502000218 43 68 4.3 7.8 0.00 0.19 0.05 69 1016.4
20260501235218 44 68 4.3 7.0 0.00 0.20 0.05 69 1016.4
20260501234218 44 90 5.2 7.8 0.00 0.20 0.05 69 1016.3
20260501233218 45 45 5.2 8.7 0.00 0.20 0.05 69 1016.2
20260501232217 45 90 3.5 6.1 0.00 0.20 0.05 68 1016.2
20260501231218 45 68 4.3 7.0 0.00 0.20 0.05 68 1016.1
20260501230217 45 68 2.6 4.3 0.00 0.20 0.05 69 1016.3
20260501225217 45 45 4.3 6.1 0.00 0.22 0.05 68 1016.4
20260501224217 45 45 3.5 7.8 0.00 0.22 0.05 68 1016.4
20260501223217 46 68 5.2 7.8 0.00 0.22 0.05 68 1016.4
20260501222217 45 45 5.2 8.7 0.00 0.22 0.05 68 1016.4
20260501221238 45 68 4.3 7.8 0.00 0.22 0.05 69 1016.4
20260501220218 45 45 2.6 4.3 0.00 0.22 0.05 68 1016.4
20260501215217 45 45 2.6 4.3 0.00 0.23 0.05 69 1016.4
20260501214218 45 68 3.5 7.0 0.00 0.23 0.05 70 1016.4
20260501213217 45 68 5.2 8.7 0.00 0.23 0.05 70 1016.3
20260501212217 45 68 5.2 8.7 0.00 0.23 0.05 69 1016.2
20260501211217 45 90 5.2 7.8 0.00 0.23 0.05 68 1016.1
20260501210217 45 45 5.2 7.8 0.00 0.23 0.05 67 1016.2
20260501205217 45 68 4.3 7.8 0.00 0.23 0.05 68 1016.2
20260501204217 45 68 5.2 7.8 0.00 0.23 0.05 67 1016.2
20260501203217 46 45 3.5 6.1 0.00 0.23 0.05 66 1016.2
20260501202217 46 68 4.3 7.8 0.00 0.23 0.05 66 1016.2
20260501201217 46 90 5.2 7.8 0.00 0.23 0.05 65 1016.2
20260501200217 47 68 5.2 8.7 0.00 0.23 0.05 63 1016.2
20260501195217 47 68 1.7 2.6 0.00 0.23 0.05 62 1016.2
20260501194217 47 113 0.9 1.7 0.00 0.23 0.05 61 1016.0
20260501193217 47 113 2.6 3.5 0.00 0.23 0.05 59 1015.9
20260501192217 48 68 3.5 6.1 0.00 0.23 0.05 60 1015.9
20260501191217 48 45 2.6 7.0 0.00 0.23 0.05 56 1015.9
20260501190217 48 293 1.7 3.5 0.00 0.23 0.05 48 1015.8
20260501185217 49 315 3.5 7.0 0.00 0.23 0.05 48 1015.7
20260501184217 49 315 3.5 7.0 0.00 0.23 0.05 49 1015.7
20260501183217 49 315 4.3 7.8 0.00 0.23 0.05 47 1015.6
20260501182217 49 293 3.5 8.7 0.00 0.23 0.05 47 1015.5